SCP
0 0 0 0 0 0 0 0 0 0 0 0 0 0 0 0 0 0 0 0 0 0 0 0 0 0 0 0 0 0 0 0 0 0 0 0 0 0 0 0 0 0 0 0
0 0 0 0 0 0 0 0 0 0 0 0 0 0 0 0 0 0 0 0 0 0 0 0 0 0 0 0 0 0 0 0 0 0 0 0 0 0 0 0 0 0 0 0
0 0 0 0 0 0 0 0 0 0 0 0 0 0 0 0 0 0 0 0 0 0 0 0 0 0 0 0 0 0 0 0 0 0 0 0 0 0 0 0 0 0 0 0
0 0 0 0 0 0 0 0 0 0 0 0 0 0 0 0 0 0 0 0 0 0 0 0 0 0 0 0 0 0 0 0 0 0 0 0 0 0 0 0 0 0 0 0
0 0 0 0 0 0 0 0 0 0 0 0 0 0 0 0 0 0 0 0 0 0 0 0 0 0 0 0 0 0 0 0 0 0 0 0 0 0 0 0 0 0 0 0
0 0 0 0 0 0 0 0 0 0 0 0 0 0 0 0 0 0 0 0 0 0 0 0 0 0 0 0 0 0 0 0 0 0 0 0 0 0 0 0 0 0 0 0
0 0 0 0 0 0 0 0 0 0 0 0 0 0 0 0 0 0 0 0 0 0 0 0 0 0 0 0 0 0 0 0 0 0 0 0 0 0 0 0 0 0 0 0
0 0 0 0 0 0 0 0 0 0 0 0 0 0 0 0 0 0 0 0 0 0 0 0 0 0 0 0 0 0 0 0 0 0 0 0 0 0 0 0 0 0 0 0
0 0 0 0 0 0 0 0 0 0 0 0 0 0 0 0 0 0 0 0 0 0 0 0 0 0 0 0 0 0 0 0 0 0 0 0 0 0 0 0 0 0 0 0
0 0 0 0 0 0 0 0 0 0 0 0 0 0 0 0 0 0 0 0 0 0 0 0 0 0 0 0 0 0 0 0 0 0 0 0 0 0 0 0 0 0 0 0
0 0 0 0 0 0 0 0 0 0 0 0 0 0 0 0 0 0 0 0 0 0 0 0 0 0 0 0 0 0 0 0 0 0 0 0 0 0 0 0 0 0 0 0
0 0 0 0 0 0 0 0 0 0 0 0 0 0 0 0 0 0 0 0 0 0 0 0 0 0 0 0 0 0 0 0 0 0 0 0 0 0 0 0 0 0 0 0
0 0 0 0 0 0 0 0 0 0 0 0 0 0 0 0 0 0 0 0 0 0 0 0 0 0 0 0 0 0 0 0 0 0 0 0 0 0 0 0 0 0 0 0
0 0 0 0 0 0 0 0 0 0 0 0 0 0 0 0 0 0 0 0 0 0 0 0 0 0 0 0 0 0 0 0 0 0 0 0 0 0 0 0 0 0 0 0
0 0 0 0 0 0 0 0 0 0 0 0 0 0 0 0 0 0 0 0 0 0 0 0 0 0 0 0 0 0 0 0 0 0 0 0 0 0 0 0 0 0 0 0
0 0 0 0 0 0 0 0 0 0 0 0 0 0 0 0 0 0 0 0 0 0 0 0 0 0 0 0 0 0 0 0 0 0 0 0 0 0 0 0 0 0 0 0
0 0 0 0 0 0 0 0 0 0 0 0 0 0 0 0 0 0 0 0 0 0 0 0 0 0 0 0 0 0 0 0 0 0 0 0 0 0 0 0 0 0 0 0
0 0 0 0 0 0 0 0 0 0 0 0 0 0 0 0 0 0 0 0 0 0 0 0 0 0 0 0 0 0 0 0 0 0 0 0 0 0 0 0 0 0 0 0
0 0 0 0 0 0 0 0 0 0 0 0 0 0 0 0 0 0 0 0 0 0 0 0 0 0 0 0 0 0 0 0 0 0 0 0 0 0 0 0 0 0 0 0
0 0 0 0 0 0 0 0 0 0 0 0 0 0 0 0 0 0 0 0 0 0 0 0 0 0 0 0 0 0 0 0 0 0 0 0 0 0 0 0 0 0 0 0
0 0 0 0 0 0 0 0 0 0 0 0 0 0 0 0 0 0 0 0 0 0 0 0 0 0 0 0 0 0 0 0 0 0 0 0 0 0 0 0 0 0 0 0
0 0 0 0 0 0 0 0 0 0 0 0 0 0 0 0 0 0 0 0 0 0 0 0 0 0 0 0 0 0 0 0 0 0 0 0 0 0 0 0 0 0 0 0
0 0 0 0 0 0 0 0 0 0 0 0 0 0 0 0 0 0 0 0 0 0 0 0 0 0 0 0 0 0 0 0 0 0 0 0 0 0 0 0 0 0 0 0
0 0 0 0 0 0 0 0 0 0 0 0 0 0 0 0 0 0 0 0 0 0 0 0 0 0 0 0 0 0 0 0 0 0 0 0 0 0 0 0 0 0 0 0
0 0 0 0 0 0 0 0 0 0 0 0 0 0 0 0 0 0 0 0 0 0 0 0 0 0 0 0 0 0 0 0 0 0 0 0 0 0 0 0 0 0 0 0
0 0 0 0 0 0 0 0 0 0 0 0 0 0 0 0 0 0 0 0 0 0 0 0 0 0 0 0 0 0 0 0 0 0 0 0 0 0 0 0 0 0 0 0
0 0 0 0 0 0 0 0 0 0 0 0 0 0 0 0 0 0 0 0 0 0 0 0 0 0 0 0 0 0 0 0 0 0 0 0 0 0 0 0 0 0 0 0
Wind_Speed
6 3 4 7 10 12 14 14 12 12 12 10 6 5 3 3 3 3 3 3 3 3 3 3 3 3 3 3 3 4 4 5 5 5 5 6 6 6 6 7 7 7 8 8
4 3 4 7 10 13 15 15 16 14 13 5 3 2 3 3 3 4 4 4 3 3 3 3 3 3 3 3 3 4 5 5 5 5 5 5 6 6 7 7 7 7 8 8
4 0 3 10 10 12 10 9 10 13 9 2 3 4 4 4 4 5 4 3 3 3 3 3 3 4 4 4 4 4 5 5 5 5 5 6 6 6 7 7 7 8 8 8
2 2 9 3 1 5 9 8 8 6 3 3 3 3 3 4 4 4 3 3 3 3 3 3 3 3 3 3 3 4 4 5 5 5 5 6 6 7 7 7 7 7 8 8
4 6 10 4 2 3 5 6 5 6 5 2 1 2 2 1 2 3 3 3 3 3 2 2 2 2 2 3 3 3 4 5 5 5 6 6 7 7 7 7 7 7 8 8
5 6 8 2 2 1 3 5 3 4 4 2 2 3 1 1 2 3 3 2 2 2 2 2 2 2 2 3 3 4 5 5 6 6 6 6 7 7 7 7 7 7 8 8
8 8 8 1 3 4 5 2 2 3 3 3 3 2 2 2 3 3 2 2 2 1 2 2 2 2 2 3 4 4 5 5 6 6 6 6 6 6 6 7 7 7 8 8
7 8 7 5 6 6 1 2 1 1 2 2 1 1 1 2 2 2 2 2 1 1 2 2 2 2 3 4 4 4 5 5 6 6 5 5 6 6 6 6 7 7 7 7
7 5 2 4 3 0 1 1 0 1 1 2 1 2 2 2 2 2 2 2 2 2 2 2 2 2 4 4 4 4 5 5 6 6 5 5 6 6 6 5 5 6 6 6
4 4 2 2 1 0 0 0 0 0 1 2 2 2 2 2 2 2 2 2 2 2 2 3 3 3 4 4 4 5 5 5 5 5 5 5 5 5 5 5 5 5 6 6
4 2 1 2 3 2 1 1 1 1 0 1 1 2 2 2 2 2 3 2 2 2 3 3 3 4 4 4 4 5 5 5 5 5 5 5 5 5 6 5 6 7 6 6
4 3 3 2 1 2 2 2 1 1 0 1 1 2 2 2 2 2 3 2 2 3 3 3 4 4 4 4 4 5 5 5 4 4 5 5 5 5 7 8 10 11 10 10
1 1 1 1 2 1 1 1 0 1 1 1 1 2 2 2 2 3 3 3 3 3 4 4 4 4 4 4 4 5 5 5 4 5 5 5 5 6 6 7 8 9 10 11
1 2 1 2 1 1 1 1 1 1 0 1 1 1 1 2 2 3 3 3 3 3 3 3 4 4 4 4 5 5 5 5 5 5 5 5 5 5 5 6 6 6 7 10
1 1 1 1 2 2 2 2 1 0 0 1 1 1 1 2 3 3 3 3 3 3 3 4 4 5 4 4 5 5 5 4 4 5 5 5 5 5 5 6 6 6 6 7
1 2 2 2 1 1 1 1 1 1 1 1 1 2 2 2 3 3 3 2 3 4 4 4 5 5 5 5 5 4 4 6 6 5 5 5 5 5 5 5 6 6 6 6
2 1 1 1 1 1 1 2 2 2 2 2 2 2 2 2 2 2 3 3 3 4 4 4 5 5 5 5 5 4 4 5 7 5 4 4 5 5 5 5 5 6 5 7
1 2 2 2 2 2 2 2 2 2 2 2 2 2 2 2 3 3 3 3 3 3 3 4 4 5 5 5 4 4 4 4 4 4 4 4 5 5 5 5 6 6 6 6
0 0 1 1 1 1 2 2 2 2 1 1 1 2 2 3 3 3 3 3 3 4 4 4 6 5 5 5 5 4 4 4 4 4 4 6 6 5 5 5 6 6 6 6
1 1 1 1 1 0 1 1 1 1 1 1 1 1 2 2 2 3 3 3 3 3 4 5 5 4 5 5 6 3 4 4 4 4 4 4 5 5 5 5 6 6 6 6
1 1 1 1 1 1 1 0 1 1 1 1 1 2 2 3 2 2 2 3 3 4 4 5 4 4 4 4 5 3 3 4 4 4 4 4 5 5 5 6 6 6 6 6
0 0 0 0 1 1 1 1 0 1 1 1 1 1 2 2 2 2 3 3 3 5 4 3 4 6 7 5 3 3 3 4 4 4 4 4 5 5 5 6 6 6 6 6
0 0 0 0 0 1 1 1 1 1 1 1 2 2 2 2 2 2 3 2 3 6 4 3 6 9 7 3 3 3 4 4 4 4 5 5 5 5 6 7 6 6 6 6
0 0 0 1 1 1 1 1 1 1 2 2 2 2 2 2 2 2 2 4 6 6 4 5 8 9 7 3 3 4 4 4 4 5 5 5 5 5 6 6 6 6 7 8
0 0 1 1 0 0 1 1 1 1 2 2 2 2 2 2 2 3 3 3 5 6 4 5 8 8 5 3 4 4 4 4 5 5 5 5 5 6 6 6 6 7 7 7
0 0 1 1 1 1 1 1 1 1 2 2 2 2 2 2 3 3 3 3 4 5 4 4 4 5 4 4 4 5 5 5 6 5 5 6 6 7 6 7 9 7 7 7
0 0 0 0 0 1 1 1 1 2 2 2 3 3 3 3 3 3 3 3 3 3 3 4 4 4 4 4 5 5 5 5 5 5 5 6 6 6 7 8 7 7 7 7
Wind_Direction
271 269 217 231 223 210 217 229 242 256 259 261 257 256 255 240 225 217 221 227 231 238 242 245 253 263 271 278 282 279 276 276 281 285 287 289 292 294 296 294 294 295 295 294
260 244 247 255 241 226 231 238 246 260 265 269 285 272 256 239 220 225 232 242 250 254 255 257 261 268 273 279 283 279 275 277 283 283 284 288 292 296 297 296 297 296 295 295
246 260 284 254 233 217 220 224 229 244 255 232 256 253 255 246 235 235 242 252 257 261 265 273 276 278 279 285 287 282 280 283 284 282 285 291 294 295 297 299 299 297 295 295
223 195 242 257 96 212 222 235 232 245 252 242 262 287 280 259 245 250 259 263 265 270 278 287 288 289 292 291 286 288 289 290 291 290 290 293 294 294 297 297 296 296 296 297
208 238 261 261 204 191 211 246 227 227 239 269 351 303 263 242 261 272 273 273 273 274 279 285 284 290 291 293 297 295 294 295 296 294 293 294 295 296 297 296 295 296 295 296
207 231 246 244 141 175 195 246 186 202 218 213 186 259 288 26 319 299 298 296 297 298 296 287 294 295 286 293 297 299 301 299 298 296 292 292 293 295 295 294 293 296 295 296
221 236 257 100 135 160 207 265 136 195 200 193 214 281 355 337 324 323 318 318 316 303 295 297 298 291 288 294 297 304 304 300 298 296 293 291 292 293 294 293 293 294 295 294
205 223 241 136 155 196 244 62 123 174 195 204 244 327 314 320 327 331 334 335 329 314 313 317 308 294 292 297 306 307 303 300 300 300 298 296 295 295 295 293 292 293 296 298
206 222 53 154 185 182 86 134 174 199 186 170 204 252 284 311 320 323 326 325 322 313 315 320 314 302 296 307 313 307 303 302 301 301 300 300 298 297 296 295 292 295 298 300
232 239 216 195 218 220 145 145 23 158 170 180 214 245 280 302 313 321 323 322 318 308 307 314 319 316 309 310 311 305 302 303 303 303 303 302 300 297 295 298 298 297 298 300
234 241 219 222 219 205 149 110 104 85 192 211 211 246 271 289 300 307 310 310 304 299 299 307 317 316 318 316 310 303 302 303 304 303 303 301 298 298 298 293 298 303 304 304
224 194 198 207 163 160 160 163 158 146 294 292 258 256 275 279 287 294 298 302 302 301 302 308 312 312 315 315 308 302 301 304 304 303 303 303 302 301 296 297 305 307 308 307
211 97 128 132 127 138 163 166 157 192 221 267 279 265 269 281 288 292 293 297 297 297 299 302 304 307 314 316 309 300 299 303 302 302 303 303 304 306 309 308 306 308 313 315
127 125 160 185 177 131 112 98 78 58 11 299 289 285 283 295 298 298 296 299 301 301 300 302 303 306 314 312 306 301 300 301 301 300 302 301 302 303 306 310 312 313 315 320
332 290 187 138 110 104 98 102 98 64 4 347 325 307 297 291 290 296 304 307 305 299 302 305 304 308 315 310 304 302 302 303 302 301 300 300 301 301 302 304 305 308 313 319
52 82 120 135 142 122 132 173 232 267 286 295 301 307 303 297 297 302 308 306 296 296 302 301 300 308 312 307 304 299 298 305 308 303 302 302 303 303 304 306 307 308 312 318
157 178 188 206 225 250 261 259 248 254 264 269 285 301 306 312 313 315 318 315 301 293 294 295 300 308 305 304 301 299 300 303 306 303 301 304 304 305 306 306 307 308 310 316
255 234 224 217 223 243 270 272 260 261 264 271 280 283 283 285 291 302 310 314 313 308 304 305 308 308 307 309 306 301 299 300 301 300 303 306 307 306 305 305 307 306 308 313
43 144 184 201 219 226 245 266 270 271 275 264 264 274 282 287 292 297 303 301 302 307 318 319 316 316 314 312 311 301 300 299 300 301 303 306 308 308 307 306 307 307 309 310
49 56 72 66 45 272 256 270 263 267 274 262 269 286 297 300 299 297 294 286 288 300 309 311 312 313 313 307 306 299 303 303 302 302 304 305 306 308 308 307 307 307 307 307
44 55 64 61 28 356 327 277 236 264 287 262 253 271 285 295 294 288 287 299 316 315 311 313 318 314 309 308 307 304 303 303 302 301 302 304 306 306 307 307 306 306 306 305
25 48 46 59 48 7 358 340 270 266 285 292 286 279 286 297 304 298 278 280 304 314 320 315 314 313 316 320 317 312 306 304 303 302 301 302 302 303 304 305 303 303 303 302
339 304 247 82 51 357 355 350 317 291 289 292 286 285 292 295 295 296 306 311 310 313 319 309 312 318 331 335 319 311 307 304 302 300 299 299 299 298 299 300 299 299 300 300
185 178 94 87 99 78 356 347 340 327 314 306 298 290 293 301 304 297 296 306 314 316 315 311 319 327 338 329 314 309 306 304 302 300 298 296 296 296 296 295 295 296 296 297
180 150 138 140 169 280 310 334 341 336 334 331 332 330 316 300 295 307 310 304 309 318 317 316 322 329 331 313 308 304 301 297 297 298 295 296 296 296 294 294 294 294 294 294
203 229 236 253 268 278 285 289 300 312 319 323 329 329 330 326 313 308 308 308 307 315 318 312 314 317 312 306 303 300 297 298 301 300 295 294 293 294 293 295 297 294 292 292
233 272 270 291 289 277 276 275 280 291 298 299 306 316 323 321 317 317 314 311 311 311 308 307 307 305 303 301 298 296 293 292 291 291 291 290 290 289 291 293 293 293 292 290